Weather History for Central Park, NY

Change the Weather History Date:

Friday, May 16, 2014

  Actual Average Record
Temperature  
Mean Temperature 63 °F 62 °F  
Max Temperature 68 °F 71 °F 90 °F (1951)
Min Temperature 58 °F 54 °F 42 °F (1878)
Degree Days  
Heating Degree Days 2 4  
Month to date heating degree days 44 93  
Since 1 July heating degree days 4933 4686  
Cooling Degree Days 0 2  
Month to date cooling degree days 21 18  
Year to date cooling degree days 25 30  
Growing Degree Days 16 (Base 50)    
Moisture  
Dew Point 63 °F    
Average Humidity 90    
Maximum Humidity 93    
Minimum Humidity 87    
Precipitation  
Precipitation 1.54 in 0.13 in 2.66 in (1916)
Month to date precipitation 2.77 2.03  
Year to date precipitation 22.56 17.63  
Snow  
Snow 0.00 in 0.00 in 0.00 in (2002)
Month to date snowfall 0.0 0.0  
Since 1 July snowfall 57.4 25.8  
Snow Depth 0.00 in    
Sea Level Pressure  
Sea Level Pressure 29.91 in    
Wind  
Wind Speed 6 mph (SSW)    
Max Wind Speed 16 mph    
Max Gust Speed 31 mph    
Visibility 4 miles    
Events Rain    
T = Trace of Precipitation, MM = Missing Value Source: NWS Daily Summary

Daily Weather History Graph

Daily Weather History Graph

Search for Another Location

Airport:

Trip Planner

Search our weather history database for the weather conditions in past years. The results will help you decide how hot, cold, wet, or windy it might be!

Date:

Astronomy

May. 16, 2014 Rise Set
Actual Time 5:37 AM EDT 8:07 PM EDT
Civil Twilight 5:06 AM EDT 8:38 PM EDT
Nautical Twilight 4:27 AM EDT 9:17 PM EDT
Astronomical Twilight 3:44 AM EDT 10:01 PM EDT
Moon 10:11 PM EDT (5/16) 7:16 AM EDT (5/16)
Length of Visible Light 15h 32m
Length of Day
14h 29m
Waning Gibbous, 95% of the Moon is Illuminated
May 16
Waning Gibbous
May 21
Last Quarter
May 28
New
Jun 5
First Quarter
Jun 13
Full

Hourly Weather History & Observations

Time (EDT) Temp. Dew Point Humidity Pressure Visibility Wind Dir Wind Speed Gust Speed Precip Events Conditions
12:51 AM 66.0 °F 62.1 °F 87% 30.08 in 7.0 mi Variable 5.8 mph - N/A   Overcast
1:51 AM 64.9 °F 62.1 °F 90% 30.06 in 6.0 mi Variable 3.5 mph 21.9 mph 0.01 in   Overcast
2:51 AM 64.9 °F 62.1 °F 90% 30.03 in 5.0 mi Variable 6.9 mph - 0.01 in   Overcast
3:51 AM 64.9 °F 62.1 °F 90% 30.02 in 5.0 mi South 8.1 mph - 0.01 in   Overcast
4:51 AM 64.0 °F 62.1 °F 93% 30.00 in 6.0 mi Variable 5.8 mph - N/A   Overcast
5:51 AM 64.9 °F 62.1 °F 90% 29.98 in 6.0 mi South 9.2 mph - N/A   Overcast
6:51 AM 64.9 °F 62.1 °F 90% 29.97 in 5.0 mi Variable 5.8 mph - N/A   Overcast
7:51 AM 66.0 °F 63.0 °F 90% 29.95 in 5.0 mi North - - N/A   Overcast
8:51 AM 66.0 °F 63.0 °F 90% 29.96 in 6.0 mi Variable 6.9 mph 21.9 mph N/A   Overcast
9:51 AM 66.9 °F 63.0 °F 87% 29.95 in 7.0 mi Variable 6.9 mph 23.0 mph N/A   Overcast
10:51 AM 66.9 °F 63.0 °F 87% 29.95 in 7.0 mi Variable 6.9 mph - N/A   Overcast
11:51 AM 66.0 °F 62.1 °F 87% 29.94 in 6.0 mi Variable 3.5 mph - N/A   Overcast
12:51 PM 68.0 °F 64.0 °F 87% 29.92 in 5.0 mi North - - 0.00 in   Overcast
1:51 PM 66.9 °F 64.0 °F 90% 29.91 in 4.0 mi North - - 0.00 in Rain Light Rain
2:51 PM 66.9 °F 64.0 °F 90% 29.88 in 3.0 mi North - - 0.04 in Rain Light Rain
3:20 PM 66.0 °F 64.0 °F 93% 29.91 in 2.5 mi South 10.4 mph 21.9 mph 0.01 in Rain Light Rain
3:27 PM 66.0 °F 64.0 °F 93% 29.91 in 3.0 mi North - - 0.01 in Rain Light Rain
3:51 PM 66.9 °F 64.0 °F 90% 29.87 in 4.0 mi North - - 0.01 in   Overcast
4:51 PM 66.2 °F 64.4 °F 94% 29.86 in 4.0 mi Variable 3.5 mph 18.4 mph N/A   Overcast
5:17 PM 66.9 °F 64.9 °F 93% 29.87 in 2.5 mi South 8.1 mph - 0.01 in Rain Light Rain
5:40 PM 66.9 °F 64.9 °F 93% 29.87 in 4.0 mi SSE 9.2 mph 27.6 mph 0.04 in Rain Light Rain
5:51 PM 66.9 °F 64.0 °F 90% 29.84 in 4.0 mi South 8.1 mph 25.3 mph 0.04 in   Overcast
6:27 PM 66.9 °F 64.0 °F 90% 29.87 in 2.5 mi Variable 4.6 mph 20.7 mph 0.01 in Rain Light Rain
6:35 PM 66.0 °F 64.0 °F 93% 29.87 in 4.0 mi SE 9.2 mph 21.9 mph 0.01 in   Overcast
6:51 PM 66.0 °F 63.0 °F 90% 29.86 in 4.0 mi Variable 6.9 mph - 0.01 in   Overcast
7:51 PM 63.0 °F 61.0 °F 93% 29.87 in 4.0 mi Variable 3.5 mph 17.3 mph 0.00 in   Overcast
8:10 PM 63.0 °F 61.0 °F 93% 29.87 in 2.0 mi Variable 6.9 mph - 0.04 in Rain Rain
8:51 PM 64.0 °F 62.1 °F 93% 29.86 in 2.5 mi South 8.1 mph - 0.13 in Rain Light Rain
9:03 PM 64.0 °F 62.1 °F 93% 29.88 in 0.8 mi Variable 6.9 mph - 0.06 in Rain Heavy Rain
9:15 PM 64.9 °F 63.0 °F 93% 29.87 in 2.0 mi SSW 8.1 mph 20.7 mph 0.21 in Rain Light Rain
9:24 PM 64.9 °F 63.0 °F 93% 29.88 in 6.0 mi Variable 4.6 mph - 0.22 in   Overcast
9:51 PM 64.0 °F 62.1 °F 93% 29.84 in 4.0 mi South 8.1 mph - 0.23 in Rain Light Rain
10:01 PM 64.0 °F 61.0 °F 90% 29.86 in 1.8 mi North - - 0.02 in Rain Rain
10:15 PM 63.0 °F 61.0 °F 93% 29.85 in 0.8 mi Variable 3.5 mph 17.3 mph 0.17 in Rain Heavy Rain
10:51 PM 64.0 °F 62.1 °F 93% 29.82 in 1.0 mi WSW 6.9 mph - 1.00 in Rain Rain
10:57 PM 63.0 °F 62.1 °F 97% 29.84 in 3.0 mi West 9.2 mph 17.3 mph 0.01 in Rain Light Rain
11:51 PM 59.0 °F 57.0 °F 93% 29.86 in 10.0 mi WNW 8.1 mph 16.1 mph 0.04 in   Overcast